Temperature
5 4 4 4 5 6 6 6 6 7 8 8 8 8 9 9 9 9 10 10 10 11 12 12 12 12 12 12 12 12 12 11 11 11 11 11 11 11 11 11 11 11 11 11
3 3 5 6 6 6 5 5 5 6 8 8 7 8 8 8 8 9 9 9 10 11 11 11 12 12 12 12 12 11 11 11 11 11 11 11 11 11 11 11 11 11 11 11
3 4 5 5 5 5 5 5 5 6 7 7 7 7 7 7 8 9 9 9 10 10 10 11 11 11 11 11 11 11 11 11 11 11 11 11 11 10 10 11 11 11 11 11
2 4 4 4 4 5 4 6 6 6 5 5 6 5 6 7 7 7 7 8 9 9 10 10 10 11 11 11 11 11 11 11 11 11 11 11 11 11 11 11 11 10 10 10
2 3 3 4 4 5 4 5 6 5 5 5 5 5 5 6 6 7 6 7 8 8 9 9 9 10 10 10 10 10 10 11 11 10 10 10 10 11 10 10 10 10 10 10
2 3 3 3 4 5 4 4 5 4 4 4 5 5 5 5 6 6 6 7 7 8 8 9 9 9 10 10 10 10 10 10 10 10 10 10 10 10 10 10 10 10 10 10
1 2 3 3 3 4 3 3 3 3 3 4 5 4 4 5 6 6 6 6 7 7 7 8 8 9 9 9 9 9 9 9 9 9 10 10 10 10 10 10 10 9 9 9
-1 0 2 2 2 2 2 2 2 3 3 4 4 4 4 4 5 6 6 6 6 6 7 7 7 8 8 9 9 9 9 9 9 9 9 9 9 9 9 9 9 9 9 9
-1 -0 2 2 3 2 2 2 2 2 3 3 3 3 4 4 4 4 4 4 4 5 6 6 7 7 8 8 8 8 8 8 8 9 9 8 8 9 9 9 9 9 9 9
-1 -1 0 1 2 2 2 2 1 2 2 3 3 3 2 2 2 3 2 3 3 4 5 5 6 6 7 7 7 7 8 8 8 8 8 8 8 8 8 8 8 8 8 8
-2 -2 -1 0 0 0 1 1 1 1 2 2 3 2 3 2 2 2 2 2 3 3 4 4 5 5 6 6 7 7 7 7 7 7 7 8 8 8 8 8 8 8 8 8
-2 -2 -2 -1 0 1 0 -0 -0 1 1 1 2 2 2 2 2 2 2 2 2 2 3 3 4 4 5 5 5 6 6 6 6 7 7 7 7 7 7 7 7 7 7 7
-2 -3 -3 -2 -1 -1 -1 -0 -0 -0 0 0 1 1 1 1 1 1 1 1 2 2 2 3 3 3 4 4 4 5 5 6 6 6 6 6 6 6 6 7 7 6 7 7
-1 -3 -3 -2 -2 -2 -2 -1 -1 -1 -1 -1 -0 0 0 -0 -0 -0 0 1 1 1 2 2 2 2 3 3 3 4 4 5 5 5 5 6 6 6 6 6 6 6 6 6
-3 -4 -3 -2 -2 -2 -2 -2 -2 -2 -2 -1 -1 -0 -1 -1 -1 -0 -0 0 0 0 1 1 1 1 2 2 3 3 4 4 4 5 5 5 5 5 5 5 6 6 5 5
-4 -4 -4 -3 -2 -2 -2 -2 -2 -2 -2 -2 -1 -1 -1 -1 -1 -1 -1 -1 -0 -0 0 0 1 1 1 2 2 3 3 4 4 4 4 4 4 4 5 5 5 5 5 5
-5 -5 -4 -4 -3 -2 -3 -3 -3 -3 -3 -2 -2 -2 -2 -2 -2 -2 -2 -1 -1 -1 -0 -0 0 0 1 1 2 2 3 3 3 4 4 4 4 4 4 4 4 4 4 4
-5 -5 -5 -4 -4 -4 -3 -3 -3 -3 -3 -3 -3 -3 -3 -3 -2 -2 -2 -2 -1 -1 -1 -1 -0 0 0 1 1 1 2 2 3 3 3 3 3 3 3 3 3 4 4 4
-5 -5 -6 -5 -5 -4 -3 -4 -4 -4 -4 -4 -4 -4 -3 -3 -2 -2 -2 -2 -2 -1 -1 -1 -0 -0 -0 0 0 1 1 1 2 2 2 3 3 3 3 3 3 3 3 3
-5 -6 -6 -6 -5 -5 -4 -4 -4 -3 -4 -4 -4 -4 -4 -4 -3 -3 -3 -3 -2 -2 -1 -1 -1 -1 -1 -0 -0 0 0 1 1 1 1 2 2 2 2 2 2 2 2 2
-6 -7 -7 -7 -6 -5 -5 -5 -4 -4 -5 -5 -5 -5 -4 -4 -4 -4 -3 -3 -2 -2 -2 -1 -1 -1 -1 -1 -1 -0 -0 -0 0 1 1 1 1 1 1 1 1 1 2 2
-7 -7 -7 -7 -7 -6 -5 -5 -5 -6 -5 -5 -5 -5 -5 -5 -4 -4 -4 -3 -3 -2 -2 -2 -2 -2 -2 -2 -1 -1 -1 -1 -0 -0 0 0 0 1 1 1 1 1 1 1
-7 -7 -7 -7 -6 -6 -6 -6 -6 -6 -6 -6 -5 -5 -5 -5 -5 -4 -4 -4 -3 -3 -3 -3 -3 -2 -2 -2 -2 -2 -1 -1 -1 -1 -0 -0 -0 0 0 0 0 0 0 0
-8 -8 -8 -7 -7 -7 -6 -6 -6 -6 -6 -6 -6 -6 -5 -5 -5 -5 -5 -4 -4 -4 -3 -3 -3 -3 -3 -3 -3 -2 -2 -2 -2 -1 -1 -1 -1 -0 -0 -1 -1 -0 -1 -1
-9 -8 -8 -8 -8 -7 -6 -6 -6 -6 -6 -6 -6 -6 -6 -6 -6 -6 -5 -5 -5 -4 -4 -4 -4 -4 -4 -3 -3 -3 -3 -2 -2 -2 -2 -1 -1 -1 -1 -1 -1 -1 -1 -1
-9 -9 -9 -8 -8 -8 -7 -7 -7 -7 -7 -7 -6 -6 -6 -6 -6 -6 -6 -6 -5 -5 -5 -5 -4 -4 -4 -4 -4 -4 -3 -3 -3 -3 -2 -2 -2 -2 -2 -2 -2 -2 -2 -2
Wind_Speed
1 3 8 10 11 8 6 7 9 8 5 6 10 11 9 7 6 7 7 6 7 7 6 6 6 7 7 7 8 9 9 8 7 6 6 6 6 5 5 6 9 11 11 11
1 8 9 6 6 7 7 8 7 7 6 6 9 12 9 7 7 7 7 7 7 5 3 4 6 7 8 8 8 8 8 8 8 6 6 5 5 5 5 5 7 10 11 11
7 6 5 5 6 7 9 9 7 6 5 5 4 7 7 5 3 3 4 5 6 7 7 6 6 6 7 8 8 8 8 8 8 7 5 4 4 3 3 4 5 6 9 10
5 7 6 5 6 7 10 7 7 7 4 5 6 5 6 5 4 4 4 3 3 3 4 4 5 5 5 6 6 7 8 8 7 8 8 9 7 6 5 5 5 6 8 9
5 4 4 6 7 6 6 6 7 7 5 4 4 4 5 3 5 6 5 4 4 4 4 4 4 5 4 5 5 6 7 7 7 7 8 9 6 4 3 4 6 6 5 7
6 4 3 4 6 4 3 2 2 2 2 7 8 6 3 3 7 5 4 4 3 3 3 3 2 3 3 3 4 4 6 6 7 7 7 8 8 6 6 6 6 6 4 4
6 5 4 3 4 3 1 2 1 2 4 6 5 5 3 3 3 4 5 4 3 4 4 3 2 3 3 3 3 4 5 5 5 7 7 7 8 8 9 7 7 6 5 4
4 6 4 3 3 3 3 4 4 4 4 2 3 5 2 4 2 3 3 3 4 4 3 3 3 3 3 3 3 4 5 4 4 5 6 6 7 6 6 6 6 6 6 5
3 5 5 6 4 1 1 3 3 2 1 1 2 1 3 7 7 7 6 6 5 4 4 3 2 2 2 2 2 3 4 4 4 4 4 5 6 6 6 6 5 5 4 4
2 5 7 6 4 3 0 1 2 2 2 2 2 1 2 4 4 5 5 5 5 5 5 4 3 3 2 2 2 2 3 4 3 4 4 4 5 5 6 6 6 5 5 5
1 2 6 4 3 3 3 2 1 1 1 2 2 1 2 1 1 2 3 3 3 4 4 4 4 4 3 3 2 2 2 2 2 3 3 4 4 5 5 6 6 6 5 5
2 0 3 4 3 4 1 1 1 1 1 0 2 1 5 4 3 3 4 4 4 4 4 5 5 5 5 4 3 2 2 1 1 2 2 3 4 5 5 5 5 5 6 5
3 2 3 6 5 6 4 5 3 0 1 1 1 2 7 9 7 6 5 4 4 5 6 5 5 5 5 4 4 3 2 1 1 1 2 2 3 4 5 5 5 5 6 6
4 2 2 2 2 3 5 7 6 3 1 0 0 2 7 10 9 7 6 5 4 5 5 5 5 5 5 4 4 4 3 2 1 1 2 2 3 4 5 5 5 5 6 6
4 2 1 2 2 3 6 6 6 3 1 1 2 2 5 7 6 5 5 5 5 6 6 5 5 4 5 4 4 4 4 3 1 1 2 2 2 3 4 4 5 5 5 5
3 1 2 2 1 3 5 7 5 3 2 2 3 3 6 7 7 7 7 6 5 5 5 5 5 4 4 4 4 4 4 4 2 1 2 1 2 3 3 4 4 5 5 5
2 1 2 3 4 3 3 5 3 2 2 1 2 4 7 8 8 7 6 6 5 5 5 4 4 4 4 4 3 3 3 3 3 2 2 2 3 3 2 3 4 4 4 4
1 0 0 2 3 0 2 3 3 1 2 4 4 5 6 7 7 4 4 6 6 6 5 4 4 4 4 3 4 4 3 3 2 2 2 2 3 3 3 3 4 4 4 4
2 2 1 0 0 3 3 5 4 2 1 6 7 7 8 8 4 3 6 8 7 6 5 4 3 3 3 3 3 3 4 4 3 2 1 1 2 3 3 3 3 3 3 3
3 3 2 1 1 2 3 8 8 1 1 6 7 7 7 7 3 4 8 9 8 8 6 4 4 4 3 3 3 3 3 3 2 2 2 1 1 3 3 3 2 2 3 3
3 2 1 1 2 4 4 9 5 2 4 7 7 6 6 4 4 6 8 8 7 8 5 4 3 3 3 3 2 2 2 3 2 2 2 1 1 2 2 2 2 3 3 3
0 1 1 1 1 3 5 4 2 3 6 6 6 5 6 5 6 7 7 7 8 7 5 4 3 3 3 3 2 2 2 3 2 2 2 2 2 2 2 3 3 3 4 4
1 2 3 3 3 3 2 2 3 4 5 5 5 6 5 5 6 7 7 7 7 6 5 4 3 3 4 3 2 2 2 2 2 2 2 2 2 2 2 3 3 3 3 3
3 2 1 2 3 4 4 4 5 5 4 5 5 5 4 5 6 7 7 7 6 5 4 4 3 3 4 4 4 2 2 2 2 2 2 2 2 2 2 2 2 2 2 3
3 2 1 3 5 5 4 5 6 6 6 6 6 5 4 4 6 6 6 6 6 5 4 3 2 3 3 4 4 3 3 2 2 2 1 1 1 2 2 2 2 1 1 2
1 2 2 4 4 3 6 6 5 6 7 6 6 6 5 4 5 6 6 5 5 4 3 3 3 3 4 4 4 4 3 2 1 1 1 1 1 1 2 3 3 4 3 3
Wind_Direction
230 182 219 220 220 240 243 236 244 250 248 215 229 244 250 247 233 223 216 213 214 215 215 192 182 176 167 165 167 170 169 170 165 166 171 173 178 173 169 165 167 167 167 165
295 237 238 248 244 251 256 251 254 269 268 236 240 252 257 246 232 217 211 212 210 209 204 185 177 175 172 171 172 173 173 170 172 175 175 175 170 173 173 166 165 169 167 167
233 261 256 247 245 242 252 233 236 251 285 263 230 260 247 257 230 215 212 205 202 197 193 186 179 179 174 174 175 177 175 172 172 166 157 148 137 139 162 174 174 170 168 169
267 269 276 256 250 239 250 241 244 251 236 246 194 231 251 228 234 230 225 212 198 184 172 168 165 170 177 184 175 170 171 169 170 167 167 166 170 176 186 182 177 173 171 171
277 284 274 255 259 246 244 262 247 244 224 246 218 203 269 209 223 230 220 209 200 175 161 159 161 162 161 163 163 165 163 165 166 169 173 172 173 174 163 165 170 176 176 176
274 285 272 270 284 249 259 306 268 226 182 232 217 186 266 222 216 211 206 200 193 163 145 137 131 130 129 130 137 144 157 167 168 169 172 174 169 163 162 168 175 178 179 179
323 296 286 291 316 325 67 120 150 206 210 234 194 169 241 275 228 193 182 188 169 139 122 112 112 122 126 128 142 146 151 167 173 172 175 177 173 171 173 175 177 175 177 183
320 303 300 308 263 238 239 181 180 200 208 242 157 189 246 321 346 77 101 125 108 99 104 120 136 134 138 141 148 154 163 168 173 175 180 179 175 177 180 178 176 179 183 184
292 287 316 321 316 202 221 235 208 178 225 191 192 260 343 18 36 48 57 68 71 67 68 74 96 124 129 132 144 164 168 169 179 176 173 173 176 175 175 173 169 174 174 168
253 285 312 320 343 354 316 234 108 147 181 209 184 159 319 357 11 32 42 55 52 51 46 46 49 57 83 121 129 131 160 177 178 176 179 180 183 180 173 167 171 172 170 166
284 288 317 345 6 343 360 11 18 192 214 176 180 250 1 25 28 49 45 69 73 57 46 37 31 30 46 59 82 96 112 147 158 170 181 178 179 173 169 172 176 172 166 166
337 115 297 292 300 333 31 6 56 159 272 233 157 276 358 19 39 52 50 52 55 56 50 41 35 33 35 35 40 59 78 109 164 175 175 175 171 166 169 174 172 165 164 166
2 53 353 340 346 2 10 2 1 7 84 82 131 285 355 14 27 32 38 31 42 46 43 36 35 31 25 22 22 21 27 35 76 140 151 151 162 166 172 174 166 161 162 164
28 66 134 200 289 342 348 1 14 53 106 69 243 297 343 2 6 8 10 19 39 43 40 33 27 20 15 14 14 14 7 4 34 97 141 155 168 174 172 167 159 158 160 163
41 43 313 282 301 32 18 0 8 33 49 159 301 313 334 342 346 351 3 18 39 38 29 21 15 7 5 7 9 10 8 7 24 102 131 160 159 155 152 152 151 150 151 156
26 3 343 318 294 26 10 358 349 339 326 316 340 319 332 339 358 4 8 18 25 23 17 11 6 1 359 358 360 5 4 4 20 96 128 134 131 127 134 142 142 144 150 152
351 27 1 306 314 13 353 340 325 328 353 344 304 304 334 347 350 348 353 10 12 5 360 355 350 342 341 346 352 355 354 3 23 71 98 117 119 118 127 134 136 144 152 148
191 108 200 313 19 290 260 338 339 319 24 19 3 346 340 327 318 334 7 6 356 350 345 341 340 338 341 352 359 358 4 11 30 60 79 99 120 125 120 125 136 144 145 148
167 154 118 84 271 284 316 345 341 302 316 14 356 344 339 335 342 357 7 1 347 336 332 328 331 337 349 0 4 18 19 18 30 43 63 100 134 133 132 139 147 143 138 136
50 85 112 102 153 248 296 316 315 254 275 350 344 333 332 346 351 314 334 339 339 341 341 344 350 357 2 359 13 35 24 14 12 16 13 34 140 146 150 156 149 131 131 134
12 29 77 177 224 266 310 318 349 96 287 317 321 320 322 319 292 300 321 330 336 337 343 353 359 0 348 352 20 30 19 349 341 359 17 37 79 128 143 136 127 130 128 126
160 21 271 168 226 272 333 359 30 278 299 310 312 317 319 320 321 325 329 331 336 342 351 356 360 357 353 0 26 27 356 340 353 20 37 51 61 89 114 122 119 123 129 128
226 211 213 204 224 266 314 295 290 299 307 309 311 315 325 328 325 329 332 332 336 340 344 349 356 360 1 3 19 23 342 353 16 38 43 54 56 66 93 121 130 128 131 139
313 322 206 266 276 293 307 316 325 321 314 313 320 320 327 325 322 326 327 328 333 339 345 350 3 11 1 360 8 8 354 8 44 51 42 50 72 70 71 88 122 141 151 153
273 300 291 271 287 310 309 315 321 327 329 332 333 333 328 326 323 324 322 322 326 330 338 349 0 6 356 357 6 7 9 23 46 54 52 58 74 103 90 73 71 111 155 177
276 228 224 246 262 262 280 300 320 325 325 326 330 335 336 328 319 324 322 322 325 330 341 356 3 8 360 1 6 7 8 23 61 60 53 70 93 97 100 92 61 47 63 64
Height
1472 1475 1474 1471 1471 1471 1471 1471 1470 1467 1462 1465 1465 1463 1460 1459 1460 1461 1462 1463 1464 1465 1468 1472 1475 1478 1480 1483 1486 1489 1492 1495 1498 1500 1503 1505 1508 1511 1513 1516 1518 1521 1523 1525
1474 1472 1468 1468 1469 1469 1470 1470 1469 1466 1462 1463 1463 1461 1458 1457 1457 1457 1458 1459 1460 1462 1465 1468 1471 1474 1476 1479 1482 1485 1488 1491 1494 1497 1500 1503 1505 1508 1510 1513 1515 1518 1520 1523
1473 1469 1466 1467 1467 1468 1467 1467 1467 1467 1463 1460 1462 1461 1459 1455 1454 1454 1455 1456 1458 1459 1461 1463 1467 1470 1473 1475 1478 1481 1484 1487 1491 1494 1497 1500 1503 1505 1507 1509 1511 1514 1516 1519
1472 1468 1466 1466 1466 1465 1465 1461 1462 1462 1466 1466 1461 1465 1457 1454 1453 1452 1453 1454 1455 1456 1458 1460 1463 1466 1469 1472 1475 1479 1481 1484 1487 1490 1493 1495 1497 1499 1502 1505 1508 1511 1514 1516
1472 1467 1466 1464 1463 1462 1462 1459 1460 1460 1463 1465 1461 1464 1459 1453 1453 1451 1451 1452 1452 1454 1456 1458 1461 1463 1466 1469 1472 1476 1478 1481 1484 1487 1489 1491 1494 1497 1500 1502 1504 1507 1510 1512
1472 1468 1466 1464 1461 1459 1459 1459 1458 1462 1465 1465 1457 1462 1460 1454 1449 1449 1449 1450 1451 1452 1454 1457 1459 1461 1464 1467 1470 1473 1475 1478 1481 1483 1486 1488 1490 1493 1496 1498 1501 1503 1506 1509
1473 1468 1465 1463 1462 1459 1460 1465 1468 1467 1466 1458 1453 1457 1458 1451 1448 1447 1447 1448 1449 1451 1453 1455 1457 1459 1462 1464 1467 1470 1472 1475 1477 1480 1482 1485 1487 1490 1492 1495 1497 1500 1502 1505
1483 1475 1467 1464 1463 1463 1462 1463 1468 1466 1462 1457 1455 1458 1457 1451 1447 1447 1447 1448 1449 1450 1452 1454 1456 1458 1460 1463 1465 1467 1470 1472 1475 1477 1479 1482 1484 1487 1489 1492 1494 1496 1499 1502
1486 1477 1467 1464 1461 1461 1461 1462 1461 1464 1461 1459 1457 1458 1454 1451 1449 1449 1449 1449 1449 1451 1453 1454 1456 1457 1459 1461 1463 1465 1467 1469 1472 1474 1476 1479 1481 1483 1485 1488 1491 1494 1496 1499
1485 1482 1472 1467 1462 1461 1461 1460 1463 1464 1462 1457 1457 1460 1462 1457 1455 1452 1452 1452 1451 1452 1453 1454 1455 1456 1458 1460 1462 1464 1465 1467 1469 1471 1473 1475 1478 1480 1482 1485 1487 1490 1493 1495
1485 1485 1478 1471 1469 1468 1465 1465 1464 1464 1462 1460 1461 1465 1459 1457 1456 1455 1454 1454 1454 1453 1454 1454 1455 1456 1457 1459 1460 1462 1463 1465 1467 1468 1470 1472 1474 1477 1479 1481 1484 1487 1489 1492
1485 1487 1485 1477 1472 1469 1468 1469 1468 1468 1467 1465 1465 1469 1460 1458 1457 1456 1456 1456 1455 1455 1455 1455 1456 1456 1457 1458 1459 1460 1462 1463 1464 1466 1468 1469 1471 1474 1476 1478 1481 1484 1486 1488
1485 1489 1490 1483 1479 1476 1473 1471 1469 1469 1469 1469 1470 1472 1462 1460 1459 1458 1458 1457 1457 1456 1456 1456 1456 1456 1457 1458 1458 1459 1460 1461 1463 1464 1465 1466 1468 1470 1473 1475 1478 1480 1483 1485
1485 1490 1492 1492 1487 1483 1480 1476 1473 1472 1475 1475 1474 1472 1467 1464 1462 1461 1460 1458 1458 1457 1457 1456 1456 1457 1457 1457 1458 1458 1459 1460 1461 1462 1463 1464 1465 1467 1470 1472 1474 1477 1480 1482
1489 1493 1490 1487 1483 1483 1482 1480 1478 1478 1478 1479 1476 1473 1472 1469 1466 1464 1462 1460 1459 1458 1458 1457 1457 1457 1457 1457 1457 1457 1458 1458 1459 1460 1461 1462 1463 1465 1467 1469 1472 1474 1477 1479
1492 1495 1491 1488 1483 1482 1481 1481 1480 1479 1479 1478 1475 1475 1473 1470 1468 1465 1463 1461 1460 1459 1459 1458 1458 1458 1457 1457 1456 1456 1456 1457 1458 1458 1459 1460 1462 1463 1465 1467 1469 1472 1474 1476
1496 1497 1495 1491 1485 1482 1486 1485 1483 1482 1481 1479 1479 1479 1475 1471 1469 1467 1465 1463 1462 1460 1459 1459 1458 1457 1457 1456 1456 1455 1455 1455 1456 1457 1458 1459 1460 1462 1463 1465 1467 1469 1471 1473
1496 1497 1498 1494 1492 1497 1491 1486 1484 1482 1482 1481 1480 1478 1476 1473 1470 1468 1466 1465 1463 1461 1460 1459 1458 1457 1457 1456 1455 1454 1454 1454 1455 1455 1456 1458 1459 1460 1462 1463 1465 1467 1469 1471
1493 1496 1499 1499 1499 1494 1489 1487 1486 1485 1484 1483 1481 1478 1476 1473 1469 1467 1467 1465 1464 1462 1460 1459 1458 1457 1455 1455 1454 1453 1453 1453 1454 1454 1455 1456 1458 1459 1460 1462 1463 1465 1467 1469
1494 1496 1501 1502 1500 1499 1494 1487 1483 1484 1485 1483 1482 1479 1477 1473 1472 1470 1467 1465 1463 1461 1459 1457 1456 1455 1454 1454 1453 1452 1452 1452 1453 1453 1454 1455 1456 1457 1458 1460 1462 1463 1465 1467
1501 1503 1505 1506 1504 1497 1493 1487 1483 1490 1490 1484 1482 1479 1477 1475 1474 1471 1468 1465 1462 1460 1458 1457 1455 1454 1453 1453 1452 1451 1451 1451 1452 1452 1453 1454 1454 1456 1457 1458 1460 1461 1463 1464
1504 1505 1505 1505 1505 1501 1493 1489 1491 1491 1486 1483 1481 1478 1476 1474 1471 1469 1467 1464 1462 1459 1457 1456 1454 1453 1452 1451 1450 1449 1450 1450 1451 1451 1451 1452 1453 1454 1456 1457 1458 1459 1461 1462
1504 1504 1502 1502 1501 1496 1493 1492 1490 1488 1485 1482 1479 1477 1475 1473 1470 1468 1465 1463 1461 1459 1457 1455 1454 1452 1451 1450 1449 1448 1448 1449 1449 1449 1450 1451 1452 1453 1454 1455 1456 1458 1459 1460
1502 1500 1500 1499 1496 1493 1492 1490 1488 1486 1484 1481 1478 1476 1474 1472 1469 1467 1464 1462 1460 1458 1456 1454 1453 1451 1450 1449 1448 1448 1447 1447 1447 1448 1448 1449 1450 1451 1452 1454 1455 1456 1457 1458
1503 1500 1500 1498 1495 1492 1489 1488 1487 1484 1482 1479 1477 1475 1473 1471 1468 1466 1463 1461 1459 1457 1455 1453 1452 1450 1449 1448 1447 1447 1446 1446 1446 1446 1447 1448 1449 1450 1451 1452 1453 1455 1456 1457
1501 1500 1500 1497 1493 1493 1489 1487 1485 1483 1480 1478 1476 1473 1471 1470 1467 1465 1463 1461 1458 1456 1454 1453 1451 1449 1448 1447 1446 1446 1445 1445 1445 1445 1445 1446 1447 1448 1449 1450 1452 1453 1454 1455